When you browse on this site, cookies collect data to enhance your experience and personalize the content and advertising you see.
Visit our Privacy Policy to learn more. By continuing to use the site, you agree to this use of cookies and data.
  • In Romania
  • List of Countries
  • For 7 days
  • Water Temperature
  • Satellite Maps
  • Weather Map
  • Weather Widgets
  • user-avatar
    Login

    Hourly Weather Ajuterique

    Today, 22 February, Friday

    Time Temperature Precipitation Wind Pressure Humidity
    00:00 +20°C° 0 mm 0 mps 698 mmHg 84%
    01:00 +22°C° 0 mm 1 mps 698 mmHg 87%
    02:00 +22°C° 0 mm 1 mps 698 mmHg 89%
    03:00 +21°C° 0 mm 1 mps 698 mmHg 92%
    04:00 +21°C° 0 mm 1 mps 698 mmHg 94%
    05:00 +21°C° 0 mm 1 mps 698 mmHg 95%
    06:00 +21°C° 0 mm 1 mps 698 mmHg 96%
    07:00 +23°C° 0 mm 1 mps 699 mmHg 84%
    08:00 +26°C° 0 mm 1 mps 700 mmHg 72%
    09:00 +28°C° 0 mm 2 mps 701 mmHg 60%
    10:00 +30°C° 0 mm 2 mps 701 mmHg 54%
    11:00 +31°C° 0 mm 2 mps 701 mmHg 47%
    12:00 +34°C° 0 mm 2 mps 701 mmHg 41%
    13:00 +34°C° 0 mm 2 mps 700 mmHg 42%
    14:00 +32°C° 0 mm 1 mps 699 mmHg 42%
    15:00 +32°C° 0 mm 1 mps 698 mmHg 43%
    16:00 +30°C° 0.1 mm 1 mps 698 mmHg 50%
    17:00 +28°C° 0.1 mm 1 mps 698 mmHg 57%
    18:00 +25°C° 0.1 mm 0 mps 698 mmHg 63%
    19:00 +24°C° 0.1 mm 0 mps 699 mmHg 69%
    20:00 +24°C° 0.1 mm 1 mps 699 mmHg 75%
    21:00 +23°C° 0.1 mm 1 mps 700 mmHg 81%
    22:00 +23°C° 0 mm 1 mps 699 mmHg 84%
    23:00 +22°C° 0 mm 1 mps 699 mmHg 88%

    Tomorrow, 23 February, Saturday

    Time Temperature Precipitation Wind Pressure Humidity
    00:00 +22°C° 0 mm 1 mps 699 mmHg 91%
    01:00 +22°C° 0 mm 1 mps 699 mmHg 92%
    02:00 +22°C° 0 mm 1 mps 699 mmHg 93%
    03:00 +21°C° 0 mm 1 mps 698 mmHg 94%
    04:00 +21°C° 0 mm 1 mps 698 mmHg 95%
    05:00 +21°C° 0 mm 1 mps 699 mmHg 95%
    06:00 +21°C° 0 mm 1 mps 699 mmHg 95%
    07:00 +23°C° 0 mm 1 mps 700 mmHg 85%
    08:00 +25°C° 0 mm 1 mps 700 mmHg 74%
    09:00 +28°C° 0 mm 1 mps 701 mmHg 63%
    10:00 +30°C° 0 mm 2 mps 701 mmHg 55%
    11:00 +32°C° 0 mm 2 mps 701 mmHg 46%
    12:00 +35°C° 0 mm 2 mps 701 mmHg 37%
    13:00 +34°C° 0 mm 2 mps 700 mmHg 39%
    14:00 +33°C° 0 mm 1 mps 699 mmHg 40%
    15:00 +32°C° 0 mm 1 mps 698 mmHg 41%
    16:00 +30°C° 0 mm 1 mps 698 mmHg 47%
    17:00 +27°C° 0 mm 0 mps 698 mmHg 53%
    18:00 +25°C° 0 mm 0 mps 698 mmHg 58%
    19:00 +24°C° 0 mm 0 mps 699 mmHg 65%
    20:00 +23°C° 0 mm 0 mps 699 mmHg 71%
    21:00 +21°C° 0 mm 0 mps 700 mmHg 78%
    22:00 +21°C° 0 mm 0 mps 700 mmHg 81%
    23:00 +21°C° 0 mm 0 mps 700 mmHg 84%

    Day after tomorrow, 24 February, Sunday

    Time Temperature Precipitation Wind Pressure Humidity
    00:00 +20°C° 0 mm 0 mps 700 mmHg 87%
    01:00 +20°C° 0 mm 0 mps 699 mmHg 89%
    02:00 +21°C° 0 mm 1 mps 699 mmHg 92%
    03:00 +21°C° 0 mm 1 mps 698 mmHg 94%
    04:00 +21°C° 0 mm 1 mps 699 mmHg 95%
    05:00 +21°C° 0 mm 1 mps 699 mmHg 96%
    06:00 +21°C° 0 mm 1 mps 699 mmHg 97%
    07:00 +23°C° 0 mm 1 mps 700 mmHg 85%
    08:00 +25°C° 0 mm 1 mps 701 mmHg 74%
    09:00 +28°C° 0 mm 2 mps 702 mmHg 63%
    10:00 +29°C° 0 mm 2 mps 701 mmHg 57%
    11:00 +31°C° 0 mm 3 mps 701 mmHg 51%
    12:00 +33°C° 0 mm 3 mps 701 mmHg 44%
    13:00 +33°C° 0.1 mm 3 mps 700 mmHg 46%
    14:00 +31°C° 0.1 mm 3 mps 699 mmHg 47%
    15:00 +31°C° 0.1 mm 3 mps 698 mmHg 48%
    16:00 +29°C° 0.1 mm 3 mps 698 mmHg 55%
    17:00 +27°C° 0.1 mm 2 mps 698 mmHg 63%
    18:00 +26°C° 0.1 mm 2 mps 698 mmHg 70%
    19:00 +25°C° 0.1 mm 2 mps 699 mmHg 76%
    20:00 +24°C° 0.1 mm 1 mps 699 mmHg 82%
    21:00 +23°C° 0.1 mm 1 mps 700 mmHg 89%
    22:00 +22°C° 0 mm 1 mps 700 mmHg 90%
    23:00 +22°C° 0 mm 1 mps 700 mmHg 91%

    25 February, Monday

    Time Temperature Precipitation Wind Pressure Humidity
    00:00 +22°C° 0 mm 1 mps 700 mmHg 93%
    01:00 +21°C° 0 mm 1 mps 699 mmHg 93%
    02:00 +20°C° 0 mm 1 mps 699 mmHg 94%
    03:00 +20°C° 0 mm 1 mps 698 mmHg 95%
    04:00 +20°C° 0 mm 1 mps 699 mmHg 96%
    05:00 +19°C° 0 mm 1 mps 699 mmHg 96%
    06:00 +19°C° 0 mm 1 mps 699 mmHg 96%
    07:00 +21°C° 0 mm 2 mps 700 mmHg 86%
    08:00 +24°C° 0 mm 2 mps 701 mmHg 75%
    09:00 +26°C° 0 mm 3 mps 702 mmHg 64%
    10:00 +28°C° 0 mm 3 mps 701 mmHg 57%
    11:00 +29°C° 0 mm 3 mps 701 mmHg 50%
    12:00 +32°C° 0 mm 4 mps 701 mmHg 43%
    13:00 +32°C° 0 mm 4 mps 700 mmHg 41%
    14:00 +32°C° 0 mm 4 mps 699 mmHg 39%
    15:00 +33°C° 0 mm 4 mps 698 mmHg 37%
    16:00 +30°C° 0 mm 3 mps 698 mmHg 47%
    17:00 +28°C° 0 mm 3 mps 698 mmHg 56%
    18:00 +25°C° 0 mm 2 mps 698 mmHg 65%
    19:00 +24°C° 0.1 mm 2 mps 699 mmHg 74%
    20:00 +23°C° 0.1 mm 2 mps 699 mmHg 83%
    21:00 +21°C° 0.1 mm 2 mps 700 mmHg 93%
    22:00 +20°C° 0.1 mm 2 mps 700 mmHg 93%
    23:00 +20°C° 0.1 mm 2 mps 700 mmHg 94%

    26 February, Tuesday

    Time Temperature Precipitation Wind Pressure Humidity
    00:00 +20°C° 0.1 mm 2 mps 700 mmHg 95%
    01:00 +19°C° 0 mm 2 mps 700 mmHg 95%
    02:00 +19°C° 0 mm 2 mps 699 mmHg 95%
    03:00 +19°C° 0 mm 2 mps 699 mmHg 96%
    04:00 +19°C° 0 mm 2 mps 699 mmHg 95%
    05:00 +19°C° 0 mm 2 mps 700 mmHg 95%
    06:00 +18°C° 0 mm 2 mps 700 mmHg 95%
    07:00 +20°C° 0 mm 2 mps 700 mmHg 84%
    08:00 +23°C° 0 mm 2 mps 701 mmHg 73%
    09:00 +25°C° 0 mm 3 mps 702 mmHg 61%
    10:00 +27°C° 0 mm 3 mps 701 mmHg 51%
    11:00 +29°C° 0 mm 3 mps 701 mmHg 41%
    12:00 +33°C° 0 mm 3 mps 701 mmHg 30%
    13:00 +33°C° 0 mm 3 mps 700 mmHg 29%
    14:00 +34°C° 0 mm 4 mps 699 mmHg 28%
    15:00 +34°C° 0 mm 4 mps 699 mmHg 26%
    16:00 +31°C° 0 mm 3 mps 699 mmHg 34%
    17:00 +29°C° 0 mm 3 mps 699 mmHg 41%
    18:00 +27°C° 0 mm 2 mps 699 mmHg 49%
    19:00 +25°C° 0.1 mm 2 mps 699 mmHg 60%
    20:00 +24°C° 0.1 mm 2 mps 700 mmHg 70%
    21:00 +21°C° 0.1 mm 2 mps 700 mmHg 81%
    22:00 +21°C° 0 mm 2 mps 700 mmHg 86%
    23:00 +21°C° 0 mm 1 mps 700 mmHg 91%

    27 February, Wednesday

    Time Temperature Precipitation Wind Pressure Humidity
    00:00 +20°C° 0 mm 1 mps 699 mmHg 96%
    01:00 +20°C° 0 mm 1 mps 699 mmHg 96%
    02:00 +20°C° 0 mm 1 mps 699 mmHg 96%
    03:00 +20°C° 0 mm 1 mps 698 mmHg 97%
    04:00 +20°C° 0 mm 1 mps 699 mmHg 96%
    05:00 +20°C° 0 mm 1 mps 699 mmHg 95%
    06:00 +20°C° 0 mm 1 mps 699 mmHg 95%
    07:00 +22°C° 0 mm 1 mps 700 mmHg 84%
    08:00 +24°C° 0 mm 2 mps 700 mmHg 73%
    09:00 +26°C° 0 mm 2 mps 701 mmHg 62%
    10:00 +28°C° 0 mm 2 mps 701 mmHg 55%
    11:00 +29°C° 0 mm 3 mps 700 mmHg 48%
    12:00 +31°C° 0 mm 3 mps 700 mmHg 41%
    13:00 +31°C° 0 mm 3 mps 699 mmHg 39%
    14:00 +33°C° 0 mm 3 mps 699 mmHg 38%
    15:00 +33°C° 0 mm 3 mps 698 mmHg 36%
    16:00 +30°C° 0 mm 2 mps 698 mmHg 42%
    17:00 +28°C° 0 mm 2 mps 698 mmHg 49%
    18:00 +26°C° 0 mm 2 mps 698 mmHg 56%
    19:00 +24°C° 0 mm 1 mps 698 mmHg 65%
    20:00 +23°C° 0 mm 1 mps 699 mmHg 74%
    21:00 +21°C° 0 mm 1 mps 699 mmHg 83%
    22:00 +21°C° 0 mm 1 mps 699 mmHg 86%
    23:00 +20°C° 0 mm 1 mps 699 mmHg 90%
    Show more